Погода Верещагино

Погода Верещагино : погода сейчас, прогноз погоды и архив. Всё, что Вы хотите узнать о погоде Верещагино!

Поиск расширенной информации на нашем сайте:

Полезная информация: Онлайн курсы по программированию - радиатор панельный Buderus. Радиатор для систем отопл.

Другие новости

Новости СМИ2

Главная страница сайта

Новости сайта

03.07.2017

Напоминаем, что на нашем специализированном сайте Метеоцентр.Азия вы можете получить высокодетализированные автоматические прогнозы погоды по пунктам России, СНГ и мира в авиационном формате (включающие направление и скорость ветра, видимость, явления погоды, количество и форму облачности, нижнюю и верхнюю границу облачности).

Рекомендуем: вода газированная оптом

Погода Верещагино - сегодня

Время (UTC), дата Ветер
(°,м/с) 
Видим.   Явления Облачность Т
(°С)
Тd
(°С)
f(%) Тe
(°С)
Pmin
(гПа)
dP
(гПа)
Po
(мм)
O2
(г/м3)
Тmin Tmax R s Состояние
почвы
15 12.12.17 110 (В) 4000 м  слаб. снег  10/10 2000 м 
[Ns]
-12.5 -13.9 89 -15  1032.9  0.5  751  318    -12.5  0.0     
18 12.12.17 090 (В) 4000 м  слаб. снег  10/10 2000 м 
[Ns]
-11.1 -12.4 90 -11  1032.9  0.1  751  317           
21 12.12.17 100 (В) 4000 м  слаб. снег  10/10 2000 м 
[Ns]
-10.2 -11.3 92 -12  1032.5  -0.2  751  315           
00 13.12.17 100 (В) 4000 м  слаб. снег  10/10 2000 м 
[Ns]
-9.5 -10.5 92 -11  1032.1  -0.3  751  314           
03 13.12.17 120 (ЮВ) 4000 м  слаб. снег  10/10 2000 м 
[Ns]
-6.8 -7.6 94 -8  1031.2  -0.6  750  311  -12.5    0.0  13  равномерный
сухой снег
100% 
06 13.12.17 130 (ЮВ) 4000 м  дымка{снег}  10/10 2000 м 
[Ns]
-5.5 -6.2 95 -7  1030.5  -0.5  750  309           
09 13.12.17 160 (Ю) 4000 м  слаб. снег  10/10 2000 м 
[Ns]
-4.4 -5 96 -8  1029.7  -0.7  749  307           
15 13.12.17 160 (Ю) 7-11{12}  4000 м  слаб. снег  10/10 2000 м 
[Ns]
-5.1 -6 93 -10  1027.3  -1.7  747  308    -4.3  0.0     
18 13.12.17 160 (Ю) 6-10{14}  4000 м  слаб. снег  10/10 600 м 
[Frnb|Ns]
-5.2 -6.2 93 -10  1025.7  -1.6  746  307           
21 13.12.17 160 (Ю) 6-11{13}  4000 м  слаб. снег{дождь} [диам. гололёда 1 мм]  10/10 600 м 
[Frnb|Ns]
-4.7 -6.1 90 -9  1023.9  -1.7  745  306           
00 14.12.17 170 (Ю) 7-12{15}  4000 м  слаб. снег{дождь}  10/10 2000 м 
[Ns]
-4.9 -6.3 90 -10  1023.4  -0.4  745  306           
03 14.12.17 180 (Ю) 7-11{13}  2000 м  снег  10/10 2000 м 
[Ns]
-4.6 -5.9 91 -9  1023.8  0.4  745  306  -5.2    13  равномерный
сухой снег
100% 
06 14.12.17 180 (Ю) 5-10{13}  4000 м  снег  10/10 2000 м 
[Ns]
-5 -6.7 88 -9  1025.2  1.3  746  307           
09 14.12.17 160 (Ю) 5{11}  4000 м  снег  10/10 2000 м 
[]
-5.7 -7.2 89 -10  1025.9  0.6  746  308           
12 14.12.17 160 (Ю) 6{10}  2000 м  снег  10/10 2000 м 
[Ns]
-5.9 -7.2 91 -10  1025.9  0.1  746  308           
15 14.12.17 160 (Ю) 6{10}  2000 м  снег  10/10 2000 м 
[Ns]
-5.4 -6.7 91 -10  1025.9  0.1  746  308    -4.6     
18 14.12.17 180 (Ю) 5-10{12}  4000 м  {снег}  10/10 2000 м 
[]
-3.5 -4.5 93 -7  1025.7  746  305           
21 14.12.17 180 (Ю) 7-12{13}  4000 м    10/10 2000 м 
[Ns]
-2.8 -5.2 84 -7  1026.3  0.6  747  305           
00 15.12.17 180 (Ю) 7-12{13}  20000 м    10/10 2000 м 
[Ns]
-3.4 -7.7 72 -8  1027.1  0.7  747  306           
03 15.12.17 170 (Ю) 7-12{14}  20000 м    10/10 2000 м 
[Ns]
-4.7 -8.9 72 -10  1027.8  0.5  748  307  -5.4    0.3  15  равномерный
сухой снег
100% 
06 15.12.17 170 (Ю) 6-11{12}  20000 м    9/6 1000 м средняя 
[Sc|Ac trans]
-5.6 -9.5 74 -10  1028.7  0.8  748  309  -5.6         
09 15.12.17 170 (Ю) 7-12{13}  20000 м    10/10 1000 м 
[Sc]
-6.1 -10.1 73 -11  1029  0.3  749  310           
12 15.12.17 170 (Ю) 7-11{16}  20000 м  позёмок  9/6 1000 м средняя 
[Sc|Ac As]
-7.1 -11.2 72 -12  1029.8  0.6  749  311           
15 15.12.17 170 (Ю) 7-11{13}  20000 м  позёмок  10/10 1000 м 
[Sc]
-7.6 -11.4 74 -13  1030.4  0.5  749  312    -4.7       
18 15.12.17 170 (Ю) 7-10{13}  20000 м  позёмок  10/10 1000 м 
[Sc]
-7.7 -11.5 74 -13  1030.9  0.5  750  312           
Время (UTC), дата Ветер
(°,м/с) 
Видим.   Явления Облачность Т
(°С)
Тd
(°С)
f(%) Тe
(°С)
Pmin
(гПа)
dP
(гПа)
Po
(мм)
O2
(г/м3)
Тmin Tmax R s Состояние
почвы

Для получения пояснительной информации подведите курсор к названию столбца.

ПОГОДА Верещагино - архив

Всё, что Вы хотите узнать о погоде Верещагино - удобно и подробно!

Выберите нужную дату (начиная с 1 января 2015* года) и нажмите кнопку "Найти".
Будут отображены архивные сводки погоды по пункту Верещагино, начиная с указанной даты.


Отображать данные в формате CSV (для использования в таблицах Excel)


Внимание! Наш архив погоды предназначен исключительно для личного некоммерческого использования в познавательных целях. Если Вам необходимы официальные справки о состоянии погоды (для производственных, юридических, коммерческих и т.п. целей), обращайтесь в органы Росгидромета.

*Примечание: данная дата относится к архиву по метеостанциям СССР (Россия, СНГ, Балтия).
Архив по метеостанциям Зарубежной Европы и Азии (кроме Китая) хранится 10 дней, по другим регионам земного шара (Китай, Африка, Америка, Австралия, Океания) - 1 день.

Верещагино - район местоположения метеостанции


Название, широта, долгота, высота метеостанции:
Верещагино 58.1°ш. 54.7°д. 226 м над ур. моря [Российская Федерация]

Дополнительная информация

В oтличие oт бoльшинства пoгoдных сайтoв мы публикуем пoдрoбную метеoинфoрмацию в детальнoм прoфессиoнальнoм фoрмате.

Характеристики температуры и влажнoсти вoздуха измеряются на высoте 2 м в тени вдали oт зданий и деревьев.
Скoрoсть ветра измеряется на высoте 10 м (на урoвне рoста челoвека скoрoсть ветра ниже в 1.5-2 раза). Если метеoстанция нахoдится в гoрoде или в лесу, тo скoрoсть ветра занижена на 2-4 м/с пo сравнению с oткрытым местoм. Скoрoсть ветра над акватoриями крупных рек и oзёр, а также на вершинах хoлмoв на 2-5 м/с выше, чем в oбычных услoвиях.
Атмoсфернoе давление в разных тoчках местнoсти мoжет значительнo oтличаться oт давления на метеoстанции, в зависимoсти oт услoвий рельефа (при пoдъёме на 10 м давление пoнижается примернo на 1 мм рт.ст.).